�������l�o���
Date,Time,MP-1(��Sv/h),MP-2(��Sv/h),MP-3(��Sv/h),MP-4(��Sv/h),MP-5(��Sv/h),MP-6(��Sv/h),MP-7(��Sv/h),MP-8(��Sv/h),����,����(m/s),���J
2020/02/14,00:00,0.703,1.010,0.663,1.254,0.886,0.405,0.709,0.669,���k��,6.7,��
2020/02/14,00:10,0.704,1.011,0.663,1.255,0.887,0.404,0.707,0.668,��,6.4,��
2020/02/14,00:20,0.704,1.011,0.664,1.253,0.885,0.406,0.707,0.670,��,7.1,��
2020/02/14,00:30,0.704,1.009,0.663,1.255,0.886,0.405,0.707,0.668,���k��,8.1,��
2020/02/14,00:40,0.704,1.008,0.663,1.254,0.887,0.403,0.709,0.670,���k��,7.6,��
2020/02/14,00:50,0.704,1.011,0.663,1.253,0.886,0.403,0.708,0.671,���k��,5.7,��
2020/02/14,01:00,0.704,1.008,0.664,1.253,0.884,0.405,0.708,0.671,���k��,4.0,��
2020/02/14,01:10,0.703,1.009,0.663,1.253,0.885,0.403,0.708,0.668,���k��,3.8,��
2020/02/14,01:20,0.703,1.009,0.662,1.254,0.885,0.404,0.710,0.672,���k��,5.9,��
2020/02/14,01:30,0.705,1.009,0.662,1.253,0.884,0.404,0.707,0.670,���k��,6.1,��
2020/02/14,01:40,0.704,1.008,0.663,1.253,0.886,0.404,0.707,0.669,���k��,6.3,��
2020/02/14,01:50,0.702,1.010,0.663,1.254,0.884,0.403,0.708,0.669,���k��,5.8,��
2020/02/14,02:00,0.704,1.010,0.663,1.256,0.885,0.403,0.708,0.670,���k��,5.1,��
2020/02/14,02:10,0.703,1.010,0.664,1.255,0.884,0.404,0.707,0.670,���k��,4.8,��
2020/02/14,02:20,0.704,1.008,0.662,1.252,0.886,0.404,0.709,0.670,���k��,5.0,��
2020/02/14,02:30,0.703,1.010,0.662,1.253,0.885,0.403,0.707,0.669,���k��,5.9,��
2020/02/14,02:40,0.704,1.008,0.661,1.255,0.887,0.405,0.707,0.669,���k��,4.2,��
2020/02/14,02:50,0.701,1.007,0.664,1.252,0.886,0.406,0.707,0.670,���k��,5.5,��
2020/02/14,03:00,0.703,1.008,0.663,1.255,0.883,0.404,0.709,0.670,���k��,5.3,��
2020/02/14,03:10,0.703,1.011,0.663,1.253,0.886,0.404,0.709,0.670,���k��,6.1,��
2020/02/14,03:20,0.702,1.010,0.663,1.254,0.884,0.404,0.708,0.669,���k��,7.3,��
2020/02/14,03:30,0.702,1.007,0.662,1.253,0.885,0.402,0.709,0.669,���k��,7.2,��
2020/02/14,03:40,0.703,1.006,0.662,1.255,0.883,0.404,0.709,0.670,���k��,7.5,��
2020/02/14,03:50,0.701,1.008,0.663,1.253,0.885,0.403,0.709,0.670,���k��,9.3,��
2020/02/14,04:00,0.702,1.009,0.663,1.255,0.886,0.402,0.707,0.668,���k��,10.7,��
2020/02/14,04:10,0.702,1.008,0.662,1.255,0.886,0.404,0.707,0.670,���k��,9.3,��
2020/02/14,04:20,0.703,1.008,0.663,1.255,0.886,0.403,0.707,0.670,���k��,9.0,��
2020/02/14,04:30,0.702,1.010,0.663,1.253,0.885,0.403,0.708,0.668,���k��,8.8,��
2020/02/14,04:40,0.703,1.006,0.661,1.255,0.886,0.404,0.708,0.669,���k��,9.1,��
2020/02/14,04:50,0.702,1.009,0.661,1.253,0.883,0.402,0.708,0.669,���k��,8.3,��
2020/02/14,05:00,0.703,1.009,0.663,1.253,0.886,0.402,0.706,0.669,���k��,8.8,��
2020/02/14,05:10,0.702,1.009,0.663,1.254,0.884,0.403,0.707,0.670,���k��,8.6,��
2020/02/14,05:20,0.701,1.009,0.662,1.253,0.885,0.403,0.705,0.670,���k��,8.1,��
2020/02/14,05:30,0.701,1.008,0.661,1.255,0.884,0.402,0.708,0.668,���k��,8.4,��
2020/02/14,05:40,0.703,1.008,0.661,1.255,0.886,0.404,0.707,0.669,���k��,7.9,��
2020/02/14,05:50,0.703,1.010,0.663,1.254,0.886,0.404,0.708,0.669,���k��,9.2,��
2020/02/14,06:00,0.702,1.009,0.664,1.253,0.884,0.404,0.708,0.670,���k��,8.3,��
2020/02/14,06:10,0.705,1.008,0.662,1.254,0.884,0.403,0.708,0.669,���k��,7.3,��
2020/02/14,06:20,0.702,1.010,0.663,1.253,0.882,0.404,0.707,0.669,���k��,6.8,��
2020/02/14,06:30,0.701,1.005,0.662,1.252,0.882,0.403,0.708,0.671,��,6.2,��
2020/02/14,06:40,0.702,1.009,0.665,1.252,0.884,0.403,0.708,0.668,��,5.1,��
2020/02/14,06:50,0.703,1.009,0.660,1.250,0.885,0.404,0.706,0.668,���k��,7.4,��
2020/02/14,07:00,0.702,1.008,0.663,1.252,0.885,0.404,0.707,0.669,��,5.4,��
2020/02/14,07:10,0.702,1.008,0.662,1.255,0.884,0.403,0.706,0.671,���k��,4.6,��
2020/02/14,07:20,0.702,1.007,0.663,1.256,0.884,0.403,0.707,0.668,��,3.5,��
2020/02/14,07:30,0.700,1.007,0.661,1.254,0.884,0.403,0.709,0.668,���쐼,4.0,��
2020/02/14,07:40,0.701,1.008,0.660,1.253,0.886,0.403,0.709,0.669,��,2.8,��
2020/02/14,07:50,0.705,1.009,0.661,1.253,0.885,0.403,0.708,0.670,��,2.6,��
2020/02/14,08:00,0.703,1.006,0.661,1.254,0.884,0.404,0.709,0.670,��,3.1,��
2020/02/14,08:10,0.703,1.008,0.661,1.257,0.883,0.404,0.708,0.669,���k��,2.9,��
2020/02/14,08:20,0.703,1.010,0.662,1.253,0.882,0.402,0.707,0.670,�k��,2.6,��
2020/02/14,08:30,0.703,1.010,0.661,1.254,0.884,0.403,0.709,0.669,���k��,2.9,��
2020/02/14,08:40,0.704,1.005,0.663,1.256,0.883,0.404,0.708,0.670,�k��,3.2,��
2020/02/14,08:50,0.705,1.003,0.662,1.253,0.887,0.405,0.708,0.670,���k��,2.8,��
2020/02/14,09:00,0.706,1.001,0.660,1.253,0.886,0.404,0.708,0.669,�k��,3.5,��
2020/02/14,09:10,0.704,0.998,0.656,1.253,0.884,0.405,0.707,0.672,���k��,3.5,��
2020/02/14,09:20,0.705,0.998,0.661,1.255,0.886,0.405,0.706,0.670,�k��,3.9,��
2020/02/14,09:30,0.705,0.999,0.661,1.251,0.885,0.406,0.706,0.671,���k��,3.2,��
2020/02/14,09:40,0.705,0.990,0.662,1.254,0.885,0.403,0.706,0.669,�k��,3.7,��
2020/02/14,09:50,0.704,0.974,0.662,1.256,0.886,0.406,0.707,0.671,�k��,3.6,��
2020/02/14,10:00,0.704,0.976,0.662,1.255,0.887,0.405,0.707,0.671,�k��,3.0,��
2020/02/14,10:10,0.702,0.976,0.662,1.255,0.886,0.404,0.708,0.669,�k�k��,4.3,��
2020/02/14,10:20,0.703,0.975,0.663,1.253,0.886,0.402,0.707,0.668,�k�k��,4.1,��
2020/02/14,10:30,0.702,0.974,0.661,1.253,0.886,0.402,0.706,0.668,�k�k��,3.3,��
2020/02/14,10:40,0.703,0.972,0.661,1.252,0.885,0.401,0.706,0.667,�k�k��,3.2,��
2020/02/14,10:50,0.702,0.975,0.661,1.253,0.885,0.401,0.708,0.667,�k�k��,3.5,��
2020/02/14,11:00,0.704,0.974,0.665,1.254,0.887,0.401,0.707,0.666,�k�k��,3.3,��
2020/02/14,11:10,0.703,0.977,0.661,1.254,0.885,0.402,0.707,0.666,�k�k��,3.4,��
2020/02/14,11:20,0.702,0.980,0.663,1.256,0.886,0.401,0.706,0.667,�k,1.7,��
2020/02/14,11:30,0.702,0.978,0.663,1.253,0.887,0.401,0.708,0.666,���k��,3.2,��
2020/02/14,11:40,0.702,0.975,0.662,1.254,0.886,0.401,0.706,0.668,��,4.2,��
2020/02/14,11:50,0.704,0.973,0.663,1.253,0.883,0.400,0.708,0.666,�쓌,2.8,��
2020/02/14,12:00,0.704,0.972,0.662,1.258,0.886,0.402,0.706,0.669,��쓌,3.6,��
2020/02/14,12:10,0.705,0.973,0.661,1.257,0.888,0.403,0.706,0.669,��쓌,4.8,��
2020/02/14,12:20,0.704,0.972,0.661,1.258,0.887,0.402,0.707,0.668,��쓌,4.6,��
2020/02/14,12:30,0.703,0.970,0.662,1.258,0.885,0.402,0.707,0.669,��쓌,5.8,��
2020/02/14,12:40,0.704,0.972,0.663,1.260,0.887,0.404,0.708,0.668,��,5.9,��
2020/02/14,12:50,0.703,0.974,0.661,1.260,0.886,0.402,0.707,0.667,��쓌,6.3,��
2020/02/14,13:00,0.703,0.982,0.662,1.255,0.887,0.403,0.707,0.668,��쓌,6.9,��
2020/02/14,13:10,0.705,1.010,0.660,1.258,0.885,0.403,0.707,0.669,��쓌,5.3,��
2020/02/14,13:20,0.702,1.007,0.662,1.258,0.887,0.405,0.707,0.669,��쓌,4.6,��
2020/02/14,13:30,0.703,1.002,0.661,1.256,0.887,0.404,0.707,0.667,��쓌,4.9,��
2020/02/14,13:40,0.704,1.007,0.664,1.258,0.883,0.404,0.708,0.667,�쓌,4.7,��
2020/02/14,13:50,0.704,1.004,0.663,1.255,0.887,0.404,0.708,0.667,�쓌,4.6,��
2020/02/14,14:00,0.704,1.009,0.664,1.258,0.885,0.405,0.707,0.668,�쓌,4.8,��
2020/02/14,14:10,0.704,1.004,0.663,1.256,0.887,0.404,0.706,0.668,�쓌,5.6,��
2020/02/14,14:20,0.704,1.006,0.662,1.255,0.886,0.404,0.707,0.667,�쓌,4.7,��
2020/02/14,14:30,0.703,1.007,0.665,1.257,0.887,0.406,0.707,0.667,�쓌,5.6,��
2020/02/14,14:40,0.706,1.007,0.664,1.256,0.886,0.405,0.705,0.669,�쓌,5.4,��
2020/02/14,14:50,0.706,1.005,0.664,1.256,0.886,0.406,0.706,0.669,��쓌,5.3,��
2020/02/14,15:00,0.705,1.007,0.664,1.259,0.884,0.406,0.707,0.669,��쓌,5.5,��
2020/02/14,15:10,0.707,1.010,0.665,1.258,0.886,0.406,0.708,0.668,��쓌,5.2,��
2020/02/14,15:20,0.705,1.011,0.666,1.258,0.887,0.405,0.707,0.669,��쓌,6.0,��
2020/02/14,15:30,0.707,1.009,0.666,1.258,0.886,0.406,0.705,0.669,�쓌,5.7,��
2020/02/14,15:40,0.708,1.011,0.663,1.257,0.887,0.406,0.707,0.670,�쓌,5.2,��
2020/02/14,15:50,0.708,1.011,0.664,1.256,0.886,0.406,0.706,0.670,�쓌,4.3,��
2020/02/14,16:00,0.706,1.012,0.664,1.260,0.889,0.406,0.708,0.671,��쓌,3.3,��
2020/02/14,16:10,0.706,1.015,0.664,1.257,0.886,0.406,0.707,0.669,��쓌,4.1,��
2020/02/14,16:20,0.707,1.015,0.664,1.256,0.887,0.407,0.708,0.670,��쓌,5.6,��
2020/02/14,16:30,0.706,1.017,0.664,1.257,0.888,0.407,0.708,0.670,��쓌,5.6,��
2020/02/14,16:40,0.708,1.016,0.663,1.256,0.889,0.407,0.707,0.671,��쓌,6.6,��
2020/02/14,16:50,0.708,1.015,0.666,1.257,0.889,0.406,0.708,0.671,��,6.4,��
2020/02/14,17:00,0.706,1.015,0.665,1.257,0.887,0.407,0.708,0.670,��쓌,6.7,��
2020/02/14,17:10,0.706,1.018,0.664,1.257,0.886,0.406,0.708,0.669,��,6.9,��
2020/02/14,17:20,0.706,1.015,0.666,1.255,0.888,0.407,0.707,0.671,��,6.8,��
2020/02/14,17:30,0.707,1.019,0.665,1.257,0.888,0.406,0.709,0.670,��,5.9,��
2020/02/14,17:40,0.706,1.013,0.665,1.255,0.888,0.405,0.708,0.671,��쓌,5.8,��
2020/02/14,17:50,0.707,1.017,0.665,1.254,0.888,0.406,0.708,0.670,��,5.6,��
2020/02/14,18:00,0.705,1.018,0.664,1.258,0.890,0.406,0.706,0.670,��쓌,6.1,��
2020/02/14,18:10,0.704,1.016,0.665,1.256,0.891,0.407,0.710,0.672,��,5.1,��
2020/02/14,18:20,0.706,1.015,0.666,1.257,0.888,0.406,0.709,0.672,��쐼,3.4,��
2020/02/14,18:30,0.706,1.017,0.665,1.257,0.889,0.406,0.709,0.671,��,3.8,��
2020/02/14,18:40,0.709,1.018,0.664,1.257,0.889,0.406,0.707,0.670,��,4.7,��
2020/02/14,18:50,0.705,1.015,0.664,1.257,0.889,0.406,0.708,0.670,��,4.4,��
2020/02/14,19:00,0.705,1.015,0.665,1.255,0.891,0.407,0.708,0.670,��,5.5,��
2020/02/14,19:10,0.706,1.015,0.665,1.256,0.887,0.406,0.708,0.670,��,5.1,��
2020/02/14,19:20,0.705,1.013,0.665,1.257,0.888,0.406,0.710,0.671,��,5.9,��
2020/02/14,19:30,0.707,1.016,0.663,1.257,0.888,0.404,0.708,0.670,��,6.4,��
2020/02/14,19:40,0.705,1.017,0.665,1.255,0.889,0.405,0.709,0.671,��,5.2,��
2020/02/14,19:50,0.705,1.015,0.664,1.256,0.889,0.405,0.709,0.669,��,6.1,��
2020/02/14,20:00,0.706,1.015,0.664,1.256,0.889,0.404,0.710,0.668,��,5.3,��
2020/02/14,20:10,0.705,1.014,0.664,1.258,0.888,0.406,0.710,0.670,��쐼,4.4,��
2020/02/14,20:20,0.704,1.017,0.664,1.257,0.886,0.406,0.709,0.670,��쐼,3.7,��
2020/02/14,20:30,0.707,1.015,0.663,1.257,0.888,0.406,0.709,0.670,��쐼,2.6,��
2020/02/14,20:40,0.706,1.014,0.665,1.258,0.889,0.406,0.708,0.671,��쐼,3.0,��
2020/02/14,20:50,0.707,1.014,0.665,1.255,0.890,0.405,0.709,0.669,��쐼,2.3,��
2020/02/14,21:00,0.705,1.017,0.664,1.258,0.887,0.406,0.708,0.669,���쐼,3.5,��
2020/02/14,21:10,0.704,1.014,0.666,1.257,0.889,0.405,0.709,0.670,���쐼,3.2,��
2020/02/14,21:20,0.706,1.014,0.664,1.259,0.888,0.406,0.707,0.670,���k��,3.0,��
2020/02/14,21:30,0.707,1.016,0.665,1.259,0.890,0.404,0.708,0.670,�k��,4.3,��
2020/02/14,21:40,0.706,1.013,0.665,1.257,0.889,0.405,0.707,0.670,���k��,4.3,��
2020/02/14,21:50,0.706,1.012,0.666,1.258,0.888,0.406,0.710,0.669,���k��,4.4,��
2020/02/14,22:00,0.705,1.012,0.665,1.258,0.891,0.407,0.709,0.670,��,2.9,��
2020/02/14,22:10,0.705,1.013,0.664,1.255,0.888,0.406,0.709,0.670,�k��,5.3,��
2020/02/14,22:20,0.705,1.014,0.664,1.257,0.888,0.405,0.709,0.671,���k��,8.4,��
2020/02/14,22:30,0.704,1.013,0.664,1.258,0.888,0.405,0.708,0.669,���k��,8.4,��
2020/02/14,22:40,0.705,1.013,0.665,1.256,0.890,0.406,0.708,0.668,���k��,6.5,��
2020/02/14,22:50,0.705,1.012,0.664,1.259,0.889,0.405,0.707,0.669,��,5.9,��
2020/02/14,23:00,0.707,1.012,0.666,1.256,0.887,0.406,0.708,0.670,��,6.2,��
2020/02/14,23:10,0.704,1.014,0.663,1.256,0.889,0.404,0.709,0.670,��,6.5,��
2020/02/14,23:20,0.706,1.013,0.665,1.255,0.888,0.405,0.708,0.670,��,7.0,��
2020/02/14,23:30,0.705,1.013,0.664,1.256,0.887,0.406,0.708,0.670,��,6.6,��
2020/02/14,23:40,0.703,1.013,0.663,1.253,0.888,0.405,0.709,0.670,���쐼,6.6,��
2020/02/14,23:50,0.705,1.011,0.663,1.254,0.888,0.405,0.708,0.670,���쐼,6.5,��
